Weather History for KTDZ - January, 2013

Change the Weather History Date:

Tuesday, January 22, 2013

  Actual Average (KTOL) Record (KTOL)
Temperature  
Mean Temperature 6 °F 25 °F  
Max Temperature 10 °F 33 °F 65 °F (1933)
Min Temperature 1 °F 18 °F -12 °F (1936)
Degree Days  
Heating Degree Days 60 40  
Month to date heating degree days 871  
Since 1 July heating degree days 3196  
Cooling Degree Days 0 0  
Month to date cooling degree days 0  
Year to date cooling degree days 0  
Moisture  
Dew Point -1 °F    
Average Humidity 69    
Maximum Humidity 80    
Minimum Humidity 54    
Precipitation  
Precipitation 0.00 in 0.06 in - ()
Month to date precipitation 1.50  
Year to date precipitation 1.50  
Snow  
Snow 0.00 in 0.40 in - ()
Month to date snowfall 8.1  
Since 1 July snowfall 17.6  
Snow Depth -    
Sea Level Pressure  
Sea Level Pressure 30.25 in    
Wind  
Wind Speed 13 mph (West)    
Max Wind Speed 18 mph    
Max Gust Speed 25 mph    
Visibility 6 miles    
Events Snow    
T = Trace of Precipitation, MM = Missing Value Source: NWS Daily Summary

Daily Weather History Graph

Daily Weather History Graph

Search for Another Location

Airport or City:

Trip Planner

Search our weather history database for the weather conditions in past years. The results will help you decide how hot, cold, wet, or windy it might be!

Date:

Astronomy

Jan. 22, 2013 Rise Set
Actual Time 7:54 AM EST 5:37 PM EST
Civil Twilight 7:23 AM EST 6:07 PM EST
Nautical Twilight 6:50 AM EST 6:41 PM EST
Astronomical Twilight 6:17 AM EST 7:14 PM EST
Moon 1:59 PM EST (1/22) 4:15 AM EST (1/22)
Length of Visible Light 10h 43m
Length of Day
9h 43m
Waxing Gibbous, 82% of the Moon is Illuminated
Jan 22
Waxing Gibbous
Jan 26
Full
Feb 3
Last Quarter
Feb 10
New
Feb 17
First Quarter

Hourly Weather History & Observations

Time (EST) Temp. Windchill Dew Point Humidity Pressure Visibility Wind Dir Wind Speed Gust Speed Precip Events Conditions
12:00 AM 10.4 °F -7.2 °F 3.2 °F 73% 30.13 in 4.0 mi WSW 17.3 mph - 0.00 in Snow Light Snow
12:07 AM 10.4 °F -6.6 °F 3.2 °F 73% 30.13 in 6.0 mi WSW 16.1 mph - 0.00 in   Haze
12:50 AM 8.6 °F -8.9 °F 3.2 °F 79% 30.13 in 5.0 mi WSW 16.1 mph - 0.00 in Snow Light Snow
12:53 AM 9.0 °F -7.3 °F 3.0 °F 77% 30.16 in 4.0 mi WSW 13.8 mph 23.0 mph 0.00 in Snow Light Snow
1:03 AM 8.6 °F -7.7 °F 3.2 °F 79% 30.12 in 1.8 mi WSW 13.8 mph 21.9 mph 0.00 in Snow Light Snow
1:33 AM 10.4 °F -7.2 °F 3.2 °F 73% 30.12 in 2.5 mi WSW 17.3 mph 25.3 mph 0.00 in Snow Light Snow
1:47 AM 10.4 °F -7.7 °F 3.2 °F 73% 30.14 in 1.0 mi WNW 18.4 mph - 0.00 in Snow Light Snow
1:53 AM 9.0 °F -8.5 °F 3.9 °F 80% 30.17 in 0.5 mi WNW 16.1 mph - 0.00 in Snow Snow
2:02 AM 8.6 °F -8.3 °F 3.2 °F 79% 30.14 in 0.8 mi WNW 15.0 mph - 0.00 in Snow Light Snow
2:08 AM 8.6 °F -7.0 °F 3.2 °F 79% 30.14 in 1.2 mi WNW 12.7 mph - 0.00 in Snow Light Snow
2:12 AM 8.6 °F -5.5 °F 3.2 °F 79% 30.15 in 2.0 mi WNW 10.4 mph - 0.00 in Snow Light Snow
2:21 AM 8.6 °F -6.3 °F 3.2 °F 79% 30.15 in 3.0 mi WNW 11.5 mph - 0.00 in Snow Light Snow
2:35 AM 8.6 °F -4.7 °F 3.2 °F 79% 30.16 in 6.0 mi NW 9.2 mph - 0.00 in   Haze
2:53 AM 8.1 °F -9.0 °F -0.0 °F 70% 30.20 in 10.0 mi WNW 15.0 mph - 0.00 in   Overcast
3:53 AM 6.1 °F -2.8 °F -0.9 °F 73% 30.22 in 10.0 mi NNW 4.6 mph - 0.00 in   Overcast
4:53 AM 3.9 °F -8.2 °F -2.0 °F 76% 30.23 in 5.0 mi WNW 6.9 mph - 0.00 in Snow Light Snow
5:05 AM 5.0 °F -9.1 °F -2.2 °F 72% 30.20 in 8.0 mi NW 9.2 mph - 0.00 in   Overcast
5:53 AM 3.9 °F -12.2 °F -2.9 °F 73% 30.26 in 5.0 mi NW 11.5 mph - 0.00 in   Haze
6:53 AM 3.0 °F -11.5 °F -4.0 °F 73% 30.28 in 10.0 mi NNW 9.2 mph - N/A   Overcast
7:51 AM 1.4 °F -13.5 °F -7.6 °F 66% 30.26 in 10.0 mi WNW 9.2 mph - N/A   Partly Cloudy
7:53 AM 1.9 °F -12.9 °F -7.1 °F 66% 30.31 in 10.0 mi WNW 9.2 mph - N/A   Partly Cloudy
8:53 AM 3.0 °F -11.5 °F -6.0 °F 66% 30.33 in 8.0 mi WNW 9.2 mph - N/A   Overcast
9:42 AM 3.2 °F -11.3 °F -4.0 °F 72% 30.30 in 1.8 mi NW 9.2 mph - 0.00 in Snow Light Snow
9:53 AM 5.0 °F -9.1 °F -2.9 °F 70% 30.35 in 1.8 mi NW 9.2 mph - 0.00 in Snow Light Snow
10:04 AM 5.0 °F -9.1 °F -2.2 °F 72% 30.31 in 2.0 mi WNW 9.2 mph - 0.00 in Snow Light Snow
10:16 AM 5.0 °F -8.1 °F -2.2 °F 72% 30.31 in 4.0 mi NW 8.1 mph - 0.00 in   Haze
10:53 AM 6.1 °F -4.3 °F -2.0 °F 69% 30.36 in 8.0 mi WNW 5.8 mph - 0.00 in   Overcast
11:53 AM 8.1 °F -5.3 °F -0.0 °F 70% 30.35 in 10.0 mi West 9.2 mph - N/A   Overcast
12:53 PM 10.0 °F -4.5 °F -0.0 °F 64% 30.32 in 5.0 mi West 11.5 mph - 0.00 in Snow Light Snow
1:04 PM 10.4 °F -4.8 °F -0.4 °F 62% 30.28 in 5.0 mi WSW 12.7 mph 20.7 mph 0.00 in Snow Light Snow
1:53 PM 10.9 °F -2.6 °F -0.9 °F 59% 30.30 in 6.0 mi West 10.4 mph - 0.00 in Snow Light Snow
2:01 PM 10.4 °F -4.8 °F -0.4 °F 62% 30.26 in 7.0 mi West 12.7 mph 19.6 mph 0.00 in Snow Light Snow
2:53 PM 10.9 °F -4.7 °F -0.9 °F 59% 30.31 in 9.0 mi West 13.8 mph - 0.00 in   Overcast
3:37 PM 10.4 °F -5.4 °F -0.4 °F 62% 30.27 in 9.0 mi West 13.8 mph - 0.00 in   Mostly Cloudy
3:53 PM 10.9 °F -4.7 °F -0.0 °F 61% 30.31 in 10.0 mi West 13.8 mph 21.9 mph 0.00 in   Overcast
4:53 PM 10.9 °F -3.4 °F -2.9 °F 54% 30.31 in 10.0 mi WSW 11.5 mph - N/A   Clear
5:53 PM 10.0 °F -4.5 °F -2.9 °F 56% 30.32 in 10.0 mi West 11.5 mph - N/A   Clear
6:53 PM 9.0 °F -6.6 °F -4.0 °F 56% 30.34 in 10.0 mi West 12.7 mph - N/A   Clear
7:53 PM 9.0 °F -5.9 °F -4.0 °F 56% 30.34 in 10.0 mi West 11.5 mph - N/A   Clear
8:53 PM 7.0 °F -4.5 °F -4.0 °F 61% 30.34 in 10.0 mi West 6.9 mph - N/A   Clear
9:53 PM 5.0 °F -4.1 °F -4.0 °F 66% 30.33 in 10.0 mi SW 4.6 mph - N/A   Clear
10:53 PM 3.9 °F -5.3 °F -5.1 °F 66% 30.33 in 10.0 mi WSW 4.6 mph - N/A   Clear
11:53 PM 3.9 °F -5.3 °F -5.1 °F 66% 30.34 in 10.0 mi WSW 4.6 mph - N/A   Clear